Fort Greely, AK

1:12 PM AKST on December 06, 2016 (GMT -0900)
Allen Army Air Field

Weather History for PABI - November, 2012

Change the Weather History Date:

Tuesday, November 6, 2012

  Actual Average Record
Temperature  
Mean Temperature -12 °F -  
Max Temperature 0 °F 18 °F 39 °F (2002)
Min Temperature -23 °F 6 °F -24 °F (2005)
Degree Days  
Heating Degree Days 76    
Moisture  
Dew Point -18 °F    
Average Humidity 79    
Maximum Humidity 87    
Minimum Humidity 65    
Precipitation  
Precipitation 0.00 in - - ()
Sea Level Pressure  
Sea Level Pressure 30.48 in    
Wind  
Wind Speed 2 mph (SSW)    
Max Wind Speed 5 mph    
Max Gust Speed -    
Visibility 9 miles    
Events      
Averages and records for this station are not official NWS values.
T = Trace of Precipitation, MM = Missing Value Source: NWS Daily Summary

Daily Weather History Graph

Daily Weather History Graph

Search for Another Location

Airport or City:

Trip Planner

Search our weather history database for the weather conditions in past years. The results will help you decide how hot, cold, wet, or windy it might be!

Date:

Astronomy

Nov. 06, 2012 Rise Set
Actual Time 8:43 AM AKST 4:08 PM AKST
Civil Twilight 7:48 AM AKST 5:03 PM AKST
Nautical Twilight 6:50 AM AKST 6:01 PM AKST
Astronomical Twilight 5:54 AM AKST 6:56 PM AKST
Moon 11:29 PM AKST 2:16 PM AKST
Length of Visible Light 9h 15m
Length of Day
7h 24m
Waning Gibbous, 51% of the Moon is Illuminated
Nov 6
Waning Gibbous
Nov 6
Last Quarter
Nov 13
New
Nov 20
First Quarter
Nov 28
Full

Hourly Weather History & Observations

Time (AKST) Temp. Windchill Dew Point Humidity Pressure Visibility Wind Dir Wind Speed Gust Speed Precip Events Conditions
12:53 AM -5.1 °F - -9.0 °F 83% 30.32 in 10.0 mi Calm Calm - N/A   Clear
1:53 AM -6.0 °F -14.7 °F -9.9 °F 83% 30.34 in 10.0 mi WSW 3.5 mph - N/A   Clear
2:53 AM -7.1 °F -18.1 °F -11.0 °F 83% 30.35 in 10.0 mi SW 4.6 mph - N/A   Clear
3:53 AM -9.9 °F - -13.0 °F 86% 30.37 in 10.0 mi Calm Calm - N/A   Clear
4:53 AM -9.9 °F -19.2 °F -14.1 °F 82% 30.39 in 10.0 mi SW 3.5 mph - N/A   Clear
5:53 AM -11.0 °F - -16.1 °F 78% 30.40 in 10.0 mi Calm Calm - N/A   Clear
6:53 AM -11.9 °F -21.5 °F -16.1 °F 82% 30.42 in 10.0 mi SW 3.5 mph - N/A   Scattered Clouds
7:53 AM -17.0 °F - -22.0 °F 78% 30.45 in 10.0 mi Calm Calm - N/A   Scattered Clouds
8:53 AM -17.0 °F - -20.9 °F 82% 30.46 in 10.0 mi Calm Calm - N/A   Scattered Clouds
9:53 AM -15.0 °F -27.4 °F -20.0 °F 78% 30.47 in 10.0 mi SSE 4.6 mph - N/A   Scattered Clouds
10:53 AM -15.0 °F - -18.9 °F 82% 30.49 in 10.0 mi Calm Calm - N/A   Scattered Clouds
11:53 AM -11.0 °F - -14.1 °F 86% 30.50 in 10.0 mi Calm Calm - N/A   Scattered Clouds
12:53 PM -7.1 °F - -9.9 °F 87% 30.50 in 10.0 mi Calm Calm - N/A   Scattered Clouds
1:53 PM -6.0 °F - -9.9 °F 83% 30.50 in 10.0 mi Calm Calm - N/A   Scattered Clouds
2:53 PM -6.0 °F - -9.9 °F 83% 30.50 in 10.0 mi Calm Calm - N/A   Partly Cloudy
3:53 PM -7.1 °F - -9.9 °F 87% 30.51 in 10.0 mi Calm Calm - N/A   Scattered Clouds
4:53 PM -11.0 °F - -16.1 °F 78% 30.53 in 10.0 mi Calm Calm - N/A   Scattered Clouds
5:53 PM -14.1 °F -23.9 °F -18.9 °F 79% 30.56 in 10.0 mi SSE 3.5 mph - N/A   Scattered Clouds
6:53 PM -15.0 °F -27.4 °F -20.0 °F 78% 30.58 in 10.0 mi South 4.6 mph - N/A   Mostly Cloudy
7:53 PM -17.0 °F -29.7 °F -22.0 °F 78% 30.60 in 10.0 mi South 4.6 mph - N/A   Mostly Cloudy
8:53 PM -20.0 °F -33.3 °F -25.1 °F 78% 30.62 in 10.0 mi South 4.6 mph - N/A   Mostly Cloudy
9:38 PM -23.8 °F - -27.4 °F 83% 30.39 in 10.0 mi Calm Calm - N/A   Partly Cloudy
9:53 PM -20.9 °F - -26.0 °F 77% 30.62 in 10.0 mi Calm Calm - N/A   Clear
10:31 PM -20.2 °F -30.9 °F -27.4 °F 69% 30.40 in 2.5 mi South 3.5 mph - N/A   Haze
10:39 PM -20.2 °F - -25.6 °F 76% 30.40 in 1.2 mi Calm Calm - N/A   Haze
10:43 PM -20.2 °F - -25.6 °F 76% 30.40 in 4.0 mi Calm Calm - N/A   Haze
10:53 PM -23.1 °F - -27.9 °F 78% 30.63 in 10.0 mi Calm Calm - N/A   Partly Cloudy
11:53 PM -22.0 °F - -27.0 °F 77% 30.63 in 10.0 mi Calm Calm - N/A   Clear